Location: Brienzwiler
(46.7508°N, 8.1014°E)
Time: 17:39:11
(UTC+00:00)

Daily predictions for brighter satellites

Satellite Brightness Start Highest point End
(mag) Time Altitude Azimuth Time Altitude Azimuth Time Altitude Azimuth
USA 267 4.4 19:51:03 10° E 19:57:06 41° NNE 20:03:10 10° NW
Alouette 2 Rocket 4.5 19:57:31 10° N 20:01:01 33° ENE 20:05:29 10° SE
Cosmos 2322 Rocket 2.3 19:55:44 10° SSW 20:01:21 85° WNW 20:07:01 10° NNE
SL-08 ROCKET BODY 4.5 19:56:37 10° S 20:02:28 63° E 20:08:27 10° NNE
SPOT 3 Rocket 4.1 19:57:49 10° S 20:02:57 60° WSW 20:08:09 10° NNW
NOSS 7 (D) 3.9 20:00:40 10° SSW 20:03:27 50° SE 20:06:05 10° NE
Cosmos 2237 4.3 19:58:30 10° S 20:04:06 60° ESE 20:09:46 10° NNE
Cosmos 1455 2.2 20:08:22 10° N 20:12:14 73° E 20:16:04 10° SSE
Cosmos 1461 4.5 20:08:13 10° NW 20:12:31 35° WSW 20:16:49 10° S
Cosmos 1825 Rocket 4.0 20:11:44 10° SSE 20:15:56 45° E 20:20:13 10° NNE
ATLAS CENTAUR R/B 2.8 20:15:29 10° NNW 20:18:35 24° NE 20:21:36 10° E
Cosmos 1703 3.4 20:16:45 10° S 20:20:31 53° E 20:24:19 10° NNE
COSMOS 2428 3.7 20:16:52 10° SSE 20:21:28 26° ESE 20:26:05 10° NE
Cosmos 1812 Rocket 3.9 20:18:09 10° NNW 20:22:28 64° W 20:26:44 10° S
Cosmos 1844 3.9 20:18:19 10° NNW 20:24:07 69° ENE 20:29:32 11° SE
Cosmos 2322 4.0 20:19:46 10° S 20:25:11 46° ESE 20:30:38 10° NE
Cosmos 1602 Rocket 4.4 20:25:03 10° SSW 20:29:21 53° WNW 20:33:44 10° N
Cosmos 783 Rocket 4.5 20:26:09 10° S 20:31:21 70° ESE 20:36:34 10° NNE
Cosmos 2263 Rocket 4.3 20:28:02 10° NW 20:32:00 20° W 20:35:58 10° SW
Cosmos 1709 Rocket 4.2 20:25:54 10° S 20:32:03 60° E 20:38:18 10° NNE
Nadezhda 1 Rocket 4.3 20:26:41 10° NNW 20:33:05 72° W 20:39:25 10° S
NOSS 3-3 (A) 4.4 20:28:26 10° S 20:33:39 36° ESE 20:39:26 10° NE
NOSS 3-3 (C) 4.5 20:28:33 10° S 20:33:46 35° ESE 20:39:32 10° NE
MetOp-B 4.4 20:28:46 10° S 20:34:06 71° WSW 20:39:29 10° NNW
Atlas Centaur 2 3.9 20:31:12 10° SW 20:35:15 18° S 20:38:47 13° SE
Cosmos 2237 Rocket 4.0 20:33:12 11° ESE 20:35:28 13° E 20:38:04 10° ENE
Terra 2.8 20:31:40 12° SE 20:35:34 34° ENE 20:39:51 10° N
CARTOSAT-1 4.0 20:32:57 13° SE 20:36:37 49° ENE 20:40:48 10° N
Cosmos 2333 4.3 20:31:29 10° S 20:36:57 54° ESE 20:42:30 10° NE
Cosmos 2219 Rocket 2.7 20:32:18 10° S 20:37:24 38° ESE 20:42:33 10° NE
Cosmos 2360 Rocket 2.4 20:33:35 10° SSW 20:39:14 80° WNW 20:44:56 10° NNE
IGS 5A 3.5 20:35:38 10° S 20:39:47 80° WSW 20:43:58 10° NNW
Cosmos 2333 Rocket 2.5 20:41:42 10° S 20:47:08 49° ESE 20:52:39 10° NE
ATLAS 2AS CENTAUR R/B 4.0 20:44:06 10° NW 20:51:11 37° NNE 20:57:44 10° E
Cosmos 1315 Rocket 3.4 20:47:33 10° N 20:51:29 43° ENE 20:54:13 18° SE
Resurs 01 Rocket 3.5 20:48:01 10° SSW 20:51:46 27° W 20:55:32 10° NW
Cosmos 1818 4.0 20:49:12 10° SW 20:54:36 69° NW 21:00:04 10° NNE
Cosmos-2242 3.4 20:50:42 10° NNW 20:55:00 65° W 20:59:06 11° S
Cosmos 773 Rocket 4.0 20:51:54 10° SSW 20:57:12 77° ESE 21:02:30 10° NNE
SL-16 R/B 4.3 20:53:33 10° WSW 20:58:32 30° NW 21:03:31 10° NNE
Cosmos 2221 3.5 20:55:57 10° N 20:59:56 33° ENE 21:02:29 18° SE
ERS-1 Rocket 3.0 20:56:51 15° SSE 21:01:03 89° ENE 21:06:08 10° NNW
GEOS 3 Rocket 3.8 20:58:16 10° NE 21:03:41 82° NW 21:09:04 10° SW
USA 215 3.2 21:00:31 10° ENE 21:07:03 65° SE 21:13:31 10° SW
Cosmos 1892 4.2 21:07:01 18° ESE 21:08:11 20° E 21:11:03 10° NE
Cosmos 2278 Rocket 2.9 21:03:34 10° NNW 21:09:00 44° NE 21:13:09 17° ESE
ATLAS 5 CENTAUR R/B 2.4 21:07:16 10° WSW 21:11:21 53° NW 21:16:00 10° NNE
Meteor 1-11 4.2 21:06:08 10° S 21:11:46 88° W 21:17:30 10° N
Cosmos 1844 Rocket 3.5 21:08:31 10° NW 21:13:45 42° WSW 21:18:16 13° S
Cosmos 1400 Rocket 4.1 21:10:37 10° NNW 21:14:17 36° W 21:17:41 11° SSW
Gblst 52 Del rocket 4.4 21:09:06 10° WNW 21:14:49 83° NNE 21:20:33 13° ESE
SPOT 5 3.0 21:13:56 18° S 21:17:47 75° WSW 21:22:37 10° NNW
SL-16 R/B 4.2 21:18:56 10° ESE 21:19:54 11° E 21:21:06 10° E
Lacrosse 5 rocket 4.1 21:17:20 10° NW 21:20:24 19° N 21:23:23 10° NE
USA 81 4.2 21:19:52 13° S 21:24:40 78° W 21:29:59 10° N
Cosmos 2058 3.7 21:25:00 25° SE 21:26:34 34° E 21:30:20 10° NNE
BREEZE M DEB (TANK) 2.7 21:25:45 10° W 21:27:39 28° SW 21:27:39 28° SW
Cosmos 2181 Rocket 4.2 21:22:56 10° NNW 21:29:15 69° W 21:34:15 16° S
Cosmos 1408 4.1 21:29:06 20° ESE 21:29:39 21° E 21:32:23 10° NE
In-Cosmos 22 Rocket 4.4 21:29:55 24° SSE 21:32:53 50° E 21:38:01 10° NNE
Cosmos 2074 Rocket 4.0 21:29:16 19° S 21:33:50 70° E 21:40:02 10° NNE
TSX-5 4.1 21:32:17 10° NNW 21:35:43 54° ENE 21:37:36 27° SE
Cosmos 1076 Rocket 4.1 21:36:08 28° SE 21:37:45 41° E 21:41:47 10° NNE
Cosmos 1680 Rocket 4.1 21:35:42 25° SSE 21:38:05 39° ESE 21:43:01 10° NE
USA 267 3.3 21:34:04 15° ESE 21:39:40 79° NNE 21:46:14 10° NW
Cosmos 2084 3.7 21:41:49 10° NW 21:46:13 60° SW 21:48:05 32° SSE
Cosmos 1842 Rocket 3.7 21:42:28 10° NNW 21:46:49 69° W 21:49:02 28° S
JB-3 4.1 21:44:22 10° NNE 21:48:14 84° E 21:49:57 32° S
Cosmos 2151 4.4 21:47:18 22° ESE 21:48:18 24° E 21:51:45 10° NE
MTI 3.7 21:49:06 10° N 21:52:12 74° WNW 21:53:10 39° SSW
Cosmos 923 Rocket 4.0 21:52:20 24° S 21:55:31 71° ESE 22:00:49 10° NNE
Cosmos 2327 Rocket 4.5 21:52:15 25° S 21:56:01 71° E 22:02:08 10° NNE
ATLAS CENTAUR R/B 1.9 21:54:08 10° NW 21:57:34 38° WSW 21:58:26 32° SSW
Cosmos 1825 3.1 21:58:08 29° ESE 21:58:42 31° E 22:02:04 10° NNE
ALOS 2 4.0 21:58:03 20° ESE 22:00:00 27° ENE 22:03:44 10° N
Cosmos 1980 3.7 21:56:55 24° S 22:00:21 66° ESE 22:05:57 10° NNE
Cosmos 967 Rocket 4.5 21:56:08 10° SSW 22:02:37 84° ESE 22:09:06 10° NE
Cosmos 44 4.4 22:05:15 22° ESE 22:05:15 22° ESE 22:08:14 10° ENE
COSMOS 2428 3.4 21:59:50 10° SW 22:05:23 54° WNW 22:10:58 10° NNE
Cosmos 1869 4.0 22:03:54 10° NNW 22:07:44 47° W 22:09:22 29° SSW
GP-B 4.4 22:06:23 10° NNE 22:10:11 27° E 22:11:23 24° ESE
NOSS 0 Rocket 3.9 22:07:31 15° SSW 22:12:43 88° WNW 22:18:56 10° NNE
Terra 3.2 22:10:34 18° SW 22:13:18 31° W 22:17:32 10° NNW
Cosmos 1624 Rocket 4.2 22:09:22 10° NNW 22:14:34 61° ENE 22:16:57 31° SE
NOSS 3-4 (A) 3.9 22:07:55 10° NW 22:14:55 84° NE 22:19:47 25° SE
NOSS 3-4 (C) 3.9 22:08:01 10° NW 22:15:01 84° NE 22:19:55 25° SE
Cosmos 2237 Rocket 2.1 22:14:58 23° SSW 22:18:37 84° ESE 22:24:21 10° NNE
Genesis I 3.1 22:18:35 50° S 22:19:19 62° ESE 22:23:11 10° NE
Cosmos 2344 3.6 22:16:02 20° SSW 22:21:15 61° ESE 22:29:03 10° NE
Cosmos 2219 Rocket 3.5 22:16:11 10° WSW 22:21:21 38° NW 22:26:35 10° NNE
Elektron 1 4.3 22:21:21 32° SW 22:22:48 88° NW 22:28:07 10° NE
Atlas Centaur 2 4.3 22:19:28 10° SW 22:21:21 14° SSW 22:21:21 14° SSW
DELTA 2 R/B (1) 4.0 22:24:28 10° WSW 22:29:35 37° S 22:30:02 37° SSE
Thor Agena Rocket 3.4 22:25:47 10° NNE 22:30:56 88° WNW 22:33:18 33° SSW
Cosmos 2333 Rocket 3.9 22:26:34 10° WSW 22:31:38 32° NW 22:36:45 10° NNE
Cosmos 2221 4.2 22:33:47 10° NNW 22:37:21 25° W 22:39:20 18° SW
BREEZE-M DEB (TANK) 1.4 22:37:47 10° WNW 22:41:22 78° N 22:41:22 78° N
Iridium 2 4.1 22:37:52 10° NNW 22:41:37 54° W 22:42:26 43° SW
Cosmos 1371 Rocket 4.0 22:37:04 10° NNW 22:42:19 73° WSW 22:44:15 40° S
ATLAS 2AS CENTAUR R/B 2.8 22:35:18 10° NW 22:42:52 76° SW 22:46:25 32° SSE
Cosmos 1892 4.2 22:42:00 21° WSW 22:43:42 30° WNW 22:47:05 10° N
EO 1 Del DPAF 3.4 22:40:16 10° N 22:44:00 63° WNW 22:44:59 44° SW
Cosmos 1766 Rocket 3.7 22:44:24 48° SSE 22:45:22 62° E 22:49:44 10° NNE
MOS 1-B Rocket 4.4 22:38:05 10° NNE 22:45:54 84° WNW 22:49:56 27° SSW
Gbstr 26 Del rocket 4.5 22:49:28 20° E 22:49:28 20° E 22:51:08 10° ENE
Okean 3 Rocket 3.5 22:47:02 49° S 22:48:11 77° E 22:52:38 10° NNE
Cosmos 1328 Rocket 3.8 22:45:06 10° N 22:49:22 57° ENE 22:50:25 43° SE
Aureole 2 Rocket 2.3 22:46:32 10° NNW 22:48:59 61° N 22:48:59 61° N
USA 215 4.0 22:43:38 10° NE 22:49:59 54° NNW 22:56:19 10° W
Cosmos 2112 Rocket 4.4 22:48:24 24° SW 22:51:38 62° WNW 22:56:58 10° NNE
Cosmos 1606 2.7 22:47:49 10° N 22:51:44 77° E 22:52:19 60° SE
Cosmos 2278 Rocket 3.3 22:47:57 10° NW 22:52:57 33° WSW 22:54:59 25° SW
Cosmos 2218 Rocket 4.2 22:50:54 34° SSE 22:53:39 63° E 22:59:53 10° NNE
Cosmos 2297 3.7 22:48:55 10° NNW 22:54:42 81° ENE 22:57:11 36° SE
Cosmos 1420 Rocket 4.0 22:53:15 10° NNW 22:58:33 75° ENE 23:00:36 38° SE
Cosmos 2366 rocket 4.1 22:56:35 35° SSE 22:59:19 67° E 23:05:38 10° NNE
Lacrosse 5 rocket 3.4 22:57:13 10° NW 23:00:39 26° NNE 23:03:56 10° ENE
Cosmos 1633 3.8 23:01:11 28° E 23:01:13 28° E 23:04:22 10° NNE
Cosmos 1943 Rocket 2.9 22:55:48 10° NNW 23:01:18 47° ENE 23:04:40 22° ESE
SL-16 R/B 2.2 23:00:46 39° S 23:02:56 72° ESE 23:08:38 10° NNE
Cosmos 1408 4.2 23:03:24 22° WSW 23:04:32 26° WNW 23:07:36 10° NNW
Cosmos 2056 Rocket 3.9 23:00:57 10° NNW 23:06:14 54° WSW 23:07:58 38° SSW
Cosmos 1959 Rocket 4.4 23:06:20 37° S 23:08:56 79° E 23:15:09 10° N
Cosmos 1743 Rocket 4.3 23:12:36 34° ESE 23:13:22 37° E 23:17:22 10° NNE
Cosmos 2341 Rocket 4.3 23:11:46 28° SSW 23:15:02 60° WNW 23:21:12 10° N
Cosmos 332 Rocket 3.8 23:15:06 10° NNW 23:19:55 74° ENE 23:21:28 43° SE
USA 267 3.9 23:21:24 31° SSW 23:23:02 36° SW 23:28:59 10° WNW
Meteor 2-3 Rocket 3.7 23:21:02 41° S 23:23:08 82° E 23:28:51 10° NNE
IRIDIUM 104 4.5 23:23:26 39° SSW 23:25:18 67° W 23:30:31 10° N
Cosmos 2151 4.3 23:23:52 25° WSW 23:25:27 33° WNW 23:29:20 10° N
Helios 1A 2.8 23:24:53 59° S 23:25:39 87° WSW 23:29:51 10° NNW
Cosmos 405 3.2 23:25:23 10° N 23:28:53 56° ENE 23:29:08 55° E
Meteor 1-26 Rocket 4.3 23:27:00 10° NNW 23:33:01 79° W 23:35:20 39° S
Cosmos 1452 Rocket 3.4 23:28:03 10° NNW 23:33:21 83° WSW 23:35:06 44° SSE
SL-8 Rocket 4.3 23:30:59 30° SW 23:33:59 57° WNW 23:40:05 10° N
Cosmos 1825 4.2 23:32:56 17° W 23:34:16 20° WNW 23:37:09 10° NNW
CZ-4C R/B 3.6 23:27:26 10° NW 23:34:18 54° NE 23:42:15 10° ESE
Cosmos 1340 2.9 23:34:23 53° WSW 23:34:52 59° WNW 23:38:36 10° N
COSMOS 2455 2.8 23:29:14 10° NNW 23:35:18 84° NE 23:38:24 31° SE
PSLV R/B 4.0 23:31:48 10° NNE 23:35:52 45° E 23:36:34 41° SE
ALOS 2 3.6 23:35:27 31° WSW 23:36:14 33° W 23:40:14 10° NNW
Cosmos 1408 Rocket 3.7 23:35:56 47° SW 23:36:59 65° W 23:41:23 10° N
Cosmos 1933 3.9 23:33:55 10° NNW 23:37:44 42° W 23:38:13 40° WSW
Cosmos 1603 4.4 23:36:25 33° SE 23:38:01 39° ESE 23:43:17 10° NE
SL-16 R/B 4.4 23:33:17 10° ESE 23:38:05 24° ENE 23:42:55 10° N
Cosmos 1151 Rocket 3.7 23:35:12 10° NNW 23:39:16 40° W 23:40:03 36° WSW
APEX 3.9 23:42:44 10° NW 23:44:21 30° NW 23:44:21 30° NW
Cosmos 1727 Rocket 4.0 23:39:13 10° NNW 23:45:27 74° W 23:48:04 37° S
Cosmos 44 3.8 23:43:38 26° WSW 23:45:43 49° NW 23:50:04 10° NNE
Cosmos 1500 Rocket 3.5 23:44:49 54° S 23:45:46 78° E 23:50:10 10° NNE
Cosmos 2369 Rocket 2.3 23:40:17 10° NNW 23:45:54 70° ENE 23:48:49 29° SE
Resurs 1-4 Rocket 4.3 23:43:08 10° NE 23:46:07 15° E 23:48:44 11° ESE
GP-B 4.4 23:43:34 10° NNW 23:47:29 31° W 23:48:50 26° WSW
ISS -1.1 23:51:00 12° E 23:51:00 12° E 23:51:20 10° E
Cosmos 371 Rocket 3.8 23:44:54 10° NW 23:49:31 44° WSW 23:50:25 39° SW
SeaSat 1 4.1 23:46:37 10° ENE 23:50:15 20° ESE 23:51:20 19° ESE
Helios 1B rocket 2.6 23:50:36 10° NNE 23:54:41 58° E 23:55:23 50° SE
CREW DRAGON DEMO-1 DEB 4.2 23:54:49 22° WNW 23:56:22 40° NNW 23:59:18 10° ENE
